Hourly Weather Maslovka

Today, 9 May, Sunday

Time Temperature Precipitation Wind Pressure Humidity
00:00 +7°C° 0.1 mm 5 mps 735 mmHg 94%
01:00 +7°C° 0.1 mm 4 mps 736 mmHg 94%
02:00 +7°C° 0.1 mm 4 mps 736 mmHg 95%
03:00 +6°C° 0.1 mm 4 mps 737 mmHg 95%
04:00 +5°C° 0.2 mm 5 mps 737 mmHg 95%
05:00 +3°C° 0.2 mm 6 mps 738 mmHg 95%
06:00 +2°C° 0.2 mm 7 mps 739 mmHg 96%
07:00 +2°C° 0.5 mm 7 mps 739 mmHg 96%
08:00 0°C° 0.5 mm 7 mps 740 mmHg 96%
09:00 0°C° 0.5 mm 7 mps 741 mmHg 96%
10:00 0°C° 0.3 mm 7 mps 742 mmHg 94%
11:00 +2°C° 0.3 mm 7 mps 743 mmHg 91%
12:00 +3°C° 0.3 mm 7 mps 743 mmHg 89%
13:00 +4°C° 0.1 mm 8 mps 744 mmHg 83%
14:00 +5°C° 0.1 mm 8 mps 745 mmHg 76%
15:00 +6°C° 0.1 mm 8 mps 745 mmHg 70%
16:00 +6°C° 0.1 mm 7 mps 746 mmHg 69%
17:00 +8°C° 0.1 mm 6 mps 746 mmHg 69%
18:00 +8°C° 0.1 mm 5 mps 747 mmHg 68%
19:00 +7°C° 0 mm 5 mps 747 mmHg 72%
20:00 +6°C° 0 mm 4 mps 748 mmHg 76%
21:00 +4°C° 0 mm 3 mps 749 mmHg 79%
22:00 +4°C° 0 mm 4 mps 749 mmHg 80%
23:00 +4°C° 0 mm 4 mps 750 mmHg 80%

Tomorrow, 10 May, Monday

Time Temperature Precipitation Wind Pressure Humidity
00:00 +3°C° 0 mm 4 mps 750 mmHg 80%
01:00 +3°C° 0 mm 4 mps 751 mmHg 80%
02:00 +1°C° 0 mm 4 mps 751 mmHg 79%
03:00 +1°C° 0 mm 4 mps 752 mmHg 79%
04:00 +1°C° 0 mm 4 mps 752 mmHg 79%
05:00 +1°C° 0 mm 4 mps 753 mmHg 79%
06:00 +1°C° 0 mm 4 mps 753 mmHg 80%
07:00 +4°C° 0 mm 4 mps 754 mmHg 73%
08:00 +6°C° 0 mm 5 mps 754 mmHg 67%
09:00 +8°C° 0 mm 5 mps 754 mmHg 61%
10:00 +9°C° 0 mm 5 mps 754 mmHg 57%
11:00 +10°C° 0 mm 6 mps 754 mmHg 53%
12:00 +11°C° 0 mm 6 mps 754 mmHg 49%
13:00 +11°C° 0 mm 6 mps 754 mmHg 49%
14:00 +11°C° 0 mm 6 mps 754 mmHg 49%
15:00 +12°C° 0 mm 7 mps 754 mmHg 48%
16:00 +11°C° 0 mm 6 mps 754 mmHg 51%
17:00 +11°C° 0 mm 6 mps 754 mmHg 55%
18:00 +12°C° 0 mm 5 mps 754 mmHg 58%
19:00 +9°C° 0 mm 5 mps 754 mmHg 63%
20:00 +8°C° 0 mm 4 mps 755 mmHg 68%
21:00 +6°C° 0 mm 4 mps 755 mmHg 73%
22:00 +6°C° 0 mm 4 mps 755 mmHg 72%
23:00 +5°C° 0 mm 4 mps 755 mmHg 72%

Day after tomorrow, 11 May, Tuesday

Time Temperature Precipitation Wind Pressure Humidity
00:00 +5°C° 0 mm 4 mps 755 mmHg 71%
01:00 +5°C° 0 mm 4 mps 755 mmHg 74%
02:00 +4°C° 0 mm 4 mps 755 mmHg 76%
03:00 +4°C° 0 mm 4 mps 755 mmHg 78%
04:00 +3°C° 0 mm 5 mps 755 mmHg 79%
05:00 +3°C° 0 mm 5 mps 755 mmHg 79%
06:00 +3°C° 0 mm 5 mps 755 mmHg 80%
07:00 +5°C° 0 mm 6 mps 755 mmHg 75%
08:00 +8°C° 0 mm 7 mps 755 mmHg 70%
09:00 +10°C° 0 mm 7 mps 755 mmHg 65%
10:00 +11°C° 0 mm 7 mps 755 mmHg 63%
11:00 +12°C° 0 mm 7 mps 755 mmHg 61%
12:00 +14°C° 0 mm 7 mps 755 mmHg 60%
13:00 +15°C° 0 mm 6 mps 754 mmHg 60%
14:00 +16°C° 0 mm 6 mps 754 mmHg 61%
15:00 +16°C° 0 mm 6 mps 754 mmHg 62%
16:00 +16°C° 0 mm 5 mps 754 mmHg 66%
17:00 +16°C° 0 mm 5 mps 754 mmHg 69%
18:00 +17°C° 0 mm 4 mps 754 mmHg 73%
19:00 +15°C° 0 mm 4 mps 754 mmHg 77%
20:00 +13°C° 0 mm 4 mps 754 mmHg 81%
21:00 +12°C° 0 mm 4 mps 753 mmHg 86%
22:00 +12°C° 0 mm 4 mps 753 mmHg 87%
23:00 +10°C° 0 mm 5 mps 753 mmHg 88%

12 May, Wednesday

Time Temperature Precipitation Wind Pressure Humidity
00:00 +10°C° 0 mm 5 mps 753 mmHg 89%
01:00 +9°C° 0 mm 5 mps 753 mmHg 91%
02:00 +10°C° 0 mm 4 mps 752 mmHg 93%
03:00 +10°C° 0 mm 4 mps 752 mmHg 95%
04:00 +10°C° 0 mm 4 mps 752 mmHg 95%
05:00 +10°C° 0 mm 4 mps 752 mmHg 95%
06:00 +11°C° 0 mm 4 mps 751 mmHg 96%
07:00 +10°C° 0.4 mm 5 mps 751 mmHg 95%
08:00 +10°C° 0.4 mm 6 mps 751 mmHg 95%
09:00 +11°C° 0.4 mm 7 mps 750 mmHg 94%
10:00 +11°C° 0.7 mm 6 mps 751 mmHg 93%
11:00 +10°C° 0.7 mm 5 mps 751 mmHg 92%
12:00 +10°C° 0.7 mm 5 mps 752 mmHg 91%
13:00 +13°C° 0 mm 4 mps 752 mmHg 83%
14:00 +14°C° 0 mm 4 mps 752 mmHg 74%
15:00 +17°C° 0 mm 3 mps 752 mmHg 66%
16:00 +17°C° 0 mm 3 mps 752 mmHg 69%
17:00 +17°C° 0 mm 3 mps 752 mmHg 71%
18:00 +16°C° 0 mm 2 mps 752 mmHg 74%
19:00 +16°C° 0 mm 2 mps 751 mmHg 78%
20:00 +15°C° 0 mm 2 mps 751 mmHg 82%
21:00 +13°C° 0 mm 3 mps 751 mmHg 87%
22:00 +13°C° 0.2 mm 3 mps 750 mmHg 89%
23:00 +13°C° 0.2 mm 4 mps 750 mmHg 92%

13 May, Thursday

Time Temperature Precipitation Wind Pressure Humidity
00:00 +13°C° 0.2 mm 4 mps 750 mmHg 94%
01:00 +13°C° 0.2 mm 5 mps 749 mmHg 94%
02:00 +13°C° 0.2 mm 5 mps 749 mmHg 94%
03:00 +13°C° 0.2 mm 5 mps 749 mmHg 95%
04:00 +13°C° 0.2 mm 5 mps 749 mmHg 94%
05:00 +13°C° 0.2 mm 5 mps 748 mmHg 93%
06:00 +13°C° 0.2 mm 6 mps 748 mmHg 92%
07:00 +13°C° 0.1 mm 6 mps 748 mmHg 89%
08:00 +14°C° 0.1 mm 6 mps 748 mmHg 87%
09:00 +15°C° 0.1 mm 6 mps 748 mmHg 85%
10:00 +15°C° 0.1 mm 6 mps 748 mmHg 85%
11:00 +15°C° 0.1 mm 6 mps 748 mmHg 85%
12:00 +15°C° 0.1 mm 5 mps 748 mmHg 85%
13:00 +16°C° 0.2 mm 5 mps 748 mmHg 84%
14:00 +16°C° 0.2 mm 5 mps 748 mmHg 83%
15:00 +17°C° 0.2 mm 6 mps 748 mmHg 82%
16:00 +17°C° 0.2 mm 5 mps 748 mmHg 83%
17:00 +17°C° 0.2 mm 5 mps 748 mmHg 84%
18:00 +18°C° 0.2 mm 4 mps 748 mmHg 86%
19:00 +17°C° 0 mm 4 mps 748 mmHg 89%
20:00 +16°C° 0 mm 3 mps 748 mmHg 92%
21:00 +14°C° 0 mm 3 mps 748 mmHg 95%
22:00 +14°C° 0 mm 3 mps 748 mmHg 94%
23:00 +13°C° 0 mm 3 mps 748 mmHg 94%

14 May, Friday

Time Temperature Precipitation Wind Pressure Humidity
00:00 +13°C° 0 mm 3 mps 747 mmHg 93%
01:00 +13°C° 0 mm 3 mps 747 mmHg 94%
02:00 +12°C° 0 mm 3 mps 747 mmHg 94%
03:00 +12°C° 0 mm 3 mps 747 mmHg 94%
04:00 +12°C° 0 mm 3 mps 747 mmHg 93%
05:00 +13°C° 0 mm 3 mps 747 mmHg 93%
06:00 +13°C° 0 mm 4 mps 746 mmHg 92%
07:00 +15°C° 0 mm 4 mps 746 mmHg 88%
08:00 +16°C° 0 mm 5 mps 746 mmHg 84%
09:00 +19°C° 0 mm 5 mps 746 mmHg 79%
10:00 +20°C° 0 mm 6 mps 746 mmHg 76%
11:00 +21°C° 0 mm 7 mps 745 mmHg 72%
12:00 +22°C° 0 mm 7 mps 745 mmHg 69%
13:00 +22°C° 0.5 mm 7 mps 745 mmHg 69%
14:00 +23°C° 0.5 mm 7 mps 745 mmHg 69%
15:00 +23°C° 0.5 mm 7 mps 745 mmHg 69%
16:00 +22°C° 0.4 mm 6 mps 745 mmHg 72%
17:00 +22°C° 0.4 mm 6 mps 745 mmHg 75%
18:00 +21°C° 0.4 mm 5 mps 744 mmHg 79%
19:00 +20°C° 0.3 mm 4 mps 745 mmHg 83%
20:00 +18°C° 0.3 mm 3 mps 745 mmHg 87%
21:00 +17°C° 0.3 mm 2 mps 745 mmHg 92%
22:00 +16°C° 0 mm 2 mps 745 mmHg 92%
23:00 +16°C° 0 mm 2 mps 745 mmHg 91%
Show more